Orbital Elements at Epoch 2459200.5 (2020-Dec-17.0) TDB
Reference: JPL 16 (heliocentric ecliptic J2000)
Element | Value | Uncertainty (1-sigma) | Units |
e | .1091004064495206 | 6.1779e-08 | |
a | 2.285877638625963 | 1.5196e-08 | au |
q | 2.036487459158001 | 1.4433e-07 | au |
i | 6.486808962305401 | 6.6709e-06 | deg |
node | 25.78760340041681 | 3.8063e-05 | deg |
peri | 187.5718001466797 | 4.7507e-05 | deg |
M | 196.3553259824834 | 3.4085e-05 | deg |
tp | 2459774.322099642103 (2022-Jul-13.82209964) | 0.00012368 | TDB |
period | 1262.344510210244 3.46 | 1.2588e-05 3.446e-08 | d yr |
n | .28518363813381 | 2.8438e-09 | deg/d |
Q | 2.535267818093926 | 1.6854e-08 | au |
|
| | Orbit Determination Parameters
Additional Information
|